Regional Weather Roundup
Issued by NWS

Home | Current Version | Previous Version | Graphics & Text | Print | Product List | Glossary On
Versions: 1 2 3 4 5 6 7 8 9 10 11 12 13 14 15 16 17 18 19 20 21 22 23 24 25 26 27 28 29 30 31 32 33 34 35 36 37 38 39 40 41 42 43 44 45 46 47 48 49 50
000
ASUS43 KLSX 231207
RWRMO

WEATHER SUMMARY FOR MISSOURI
NATIONAL WEATHER SERVICE SPRINGFIELD MO
700 AM CDT SAT JUL 23 2016

NOTE: "FAIR" INDICATES FEW OR NO CLOUDS BELOW 12,000 FEET WITH NO
       SIGNIFICANT WEATHER AND/OR OBSTRUCTIONS TO VISIBILITY.
       CURRENT SKY AND/OR WEATHER CONDITIONS ARE NOT AVAILABLE FOR
       CHILLICOTHE AND FARMINGTON.

MOZ001>031-035>038-043-044-053-054-231300-
...NORTHERN AND WESTERN MISSOURI...

CITY           SKY/WX    TMP DP  RH WIND       PRES   REMARKS
KANSAS CTY INT MOCLDY    79  73  82 S8        29.95R
6HR MIN TEMP:  76; 6HR MAX TEMP:  79;

KANSAS C DTWN  CLEAR     83  72  69 S9        29.93S
6HR MIN TEMP:  80; 6HR MAX TEMP:  86;

LEE`S SUMMIT   CLEAR     80  73  79 S8        29.97R
6HR MIN TEMP:  80; 6HR MAX TEMP:  84;

ST JOSEPH      CLOUDY    80  73  79 S7        29.93S
6HR MIN TEMP:  79; 6HR MAX TEMP:  83;

CHILLICOTHE      N/A     77  76  96 S3        29.95S
6HR MIN TEMP:  76; 6HR MAX TEMP:  82;

KIRKSVILLE     CLEAR     77  75  93 CALM      29.98R
6HR MIN TEMP:  74; 6HR MAX TEMP:  78;


$$
MOZ066>068-077>081-088>096-101>105-231300-
...SOUTHWEST MISSOURI...

CITY           SKY/WX    TMP DP  RH WIND       PRES   REMARKS
SPRINGFIELD    CLEAR     79  74  84 S6        30.00F
6HR MIN TEMP:  77; 6HR MAX TEMP:  82;

JOPLIN         CLEAR     78  73  84 S8        29.99R
6HR MIN TEMP:  76; 6HR MAX TEMP:  84;

BRANSON        CLEAR     75  73  94 CALM      30.03S

$$
MOZ032>034-039>042-045>050-055>058-069>072-231300-
...CENTRAL MISSOURI...

CITY           SKY/WX    TMP DP  RH WIND       PRES   REMARKS
COLUMBIA       CLEAR     77  75  93 SE6       29.99R
6HR MIN TEMP:  76; 6HR MAX TEMP:  78;

JEFFERSON CITY CLEAR     75  74  96 SE3       29.98R
6HR MIN TEMP:  74; 6HR MAX TEMP:  78;

ROLLA          CLOUDY    78  70  76 S5        30.00R
6HR MIN TEMP:  73; 6HR MAX TEMP:  78;

SEDALIA        CLEAR     79  75  87 S6        29.99R
6HR MIN TEMP:  76; 6HR MAX TEMP:  79;

WHITEMAN AFB   PTCLDY    77  77 100 S6        29.96R
OSAGE BEACH    CLEAR     76  74  93 CALM      30.00S

$$
MOZ051-052-059>065-231300-
...EAST CENTRAL MISSOURI...

CITY           SKY/WX    TMP DP  RH WIND       PRES   REMARKS
ST LOUIS INTL  PTSUNNY   79  71  76 S3        30.00R
6HR MIN TEMP:  77; 6HR MAX TEMP:  80;

SPIRIT OF STL  MOSUNNY   75  73  93 CALM      29.98R
6HR MIN TEMP:  72; 6HR MAX TEMP:  75;

ST CHARLES     SUNNY     76  76 100 CALM      29.98R FOG
6HR MIN TEMP:  73; 6HR MAX TEMP:  77;


$$
MOZ072>076-082>087-097>100-106>115-231300-
...SOUTH CENTRAL AND SOUTHEAST MISSOURI...

CITY           SKY/WX    TMP DP  RH WIND       PRES   REMARKS
CAPE GIRARDEAU FOG       74  73  97 W3        29.98S VSB 1/4
6HR MIN TEMP:  73; 6HR MAX TEMP:  75;

FARMINGTON     PTSUNNY   72  71  97 CALM      30.02S
6HR MIN TEMP:  70; 6HR MAX TEMP:  74;

POPLAR BLUFF   MOSUNNY   76  74  93 NE3       29.98S FOG
6HR MIN TEMP:  75; 6HR MAX TEMP:  80;

WEST PLAINS    CLEAR     77  73  87 CALM      30.05R
6HR MIN TEMP:  74; 6HR MAX TEMP:  82;


$$


USA.gov is the U.S. government's official web portal to all federal, state and local government web resources and services.